�N����,����,�~����,�C��,���x,�C��,����,���ϕ���,�ő�u�ԕ���,�ő厞����,���˗�,�I�_���x,�n�����x,�ő啗���N��,DTYPE
"23/10/04","00:10",0.2,19.2,84.1,1010.0,298.5,1.3,2.7,307.8,0.00,16.5,21.2,"00:00:02",1
"23/10/04","00:20",0.0,18.8,86.1,1010.2,290.9,1.5,3.4,313.6,0.00,16.5,21.2,"00:19:44",1
"23/10/04","00:30",1.6,18.5,87.5,1010.2,317.9,2.1,4.0,333.6,0.00,16.4,21.3,"00:25:12",1
"23/10/04","00:40",0.8,18.4,88.7,1009.5,306.4,0.8,2.2,332.6,0.00,16.5,21.2,"00:30:40",1
"23/10/04","00:50",0.6,18.4,89.5,1009.5,248.6,0.8,2.1,313.3,0.00,16.7,21.0,"00:40:40",1
"23/10/04","01:00",1.0,18.5,90.2,1009.5,320.3,0.8,1.9,348.0,0.00,16.9,21.2,"00:58:56",1
"23/10/04","01:10",0.4,18.5,90.7,1009.0,323.0,1.1,2.1,328.8,0.00,17.0,21.1,"01:00:48",1
"23/10/04","01:20",0.6,18.6,91.3,1008.8,323.7,1.2,2.1,356.0,0.00,17.2,21.1,"01:11:28",1
"23/10/04","01:30",0.4,18.7,91.9,1009.3,336.4,1.6,2.7,334.0,0.00,17.4,21.0,"01:27:12",1
"23/10/04","01:40",0.2,18.7,92.4,1010.0,327.0,1.7,2.5,322.8,0.00,17.5,20.9,"01:37:36",1
"23/10/04","01:50",0.4,18.6,92.7,1009.5,320.4,0.6,2.0,334.0,0.00,17.4,20.9,"01:40:24",1
"23/10/04","02:00",0.4,18.5,93.0,1009.3,285.7,1.0,1.2,313.5,0.00,17.4,21.0,"01:50:24",1
"23/10/04","02:10",0.4,18.4,93.3,1009.0,262.9,0.5,1.3,250.9,0.00,17.3,20.9,"02:01:04",1
"23/10/04","02:20",0.6,18.5,93.6,1009.3,340.0,0.8,2.1,305.3,0.00,17.5,21.2,"02:18:16",1
"23/10/04","02:30",0.2,18.5,93.8,1009.0,322.7,0.8,1.8,324.4,0.00,17.5,21.0,"02:21:04",1
"23/10/04","02:40",0.2,18.5,94.1,1009.3,270.5,0.8,1.3,268.5,0.00,17.6,20.9,"02:39:44",1
"23/10/04","02:50",0.0,18.4,94.3,1009.3,315.0,1.1,2.8,325.5,0.00,17.5,21.0,"02:42:24",1
"23/10/04","03:00",0.0,18.5,94.5,1009.5,307.6,1.0,1.7,305.8,0.00,17.6,20.9,"02:56:56",1
"23/10/04","03:10",0.0,18.6,94.6,1009.3,326.5,1.0,2.0,336.4,0.00,17.8,20.9,"03:09:20",1
"23/10/04","03:20",0.2,18.5,94.8,1009.0,302.5,1.0,1.8,325.5,0.00,17.7,21.0,"03:10:48",1
"23/10/04","03:30",0.2,18.4,94.9,1008.8,290.6,0.7,1.2,262.0,0.00,17.6,21.0,"03:22:16",1
"23/10/04","03:40",0.2,18.5,95.0,1009.0,329.0,0.7,1.2,320.9,0.00,17.7,20.8,"03:33:04",1
"23/10/04","03:50",0.0,18.5,95.1,1009.0,276.2,0.7,1.2,262.1,0.00,17.7,20.9,"03:46:56",1
"23/10/04","04:00",0.0,18.5,95.2,1009.0,296.6,0.1,0.8,245.4,0.00,17.8,20.7,"03:50:08",1
"23/10/04","04:10",0.0,18.5,95.3,1009.0,325.2,0.8,1.2,332.7,0.00,17.8,21.0,"04:06:56",1
"23/10/04","04:20",0.0,18.5,95.4,1008.6,323.5,1.0,1.9,339.6,0.00,17.8,20.7,"04:12:48",1
"23/10/04","04:30",0.0,18.5,95.5,1008.8,286.2,0.8,1.2,243.7,0.00,17.8,20.9,"04:29:20",1
"23/10/04","04:40",0.0,18.5,95.6,1008.8,275.4,0.7,1.2,260.4,0.00,17.8,21.0,"04:30:32",1
"23/10/04","04:50",0.0,18.5,95.6,1008.8,289.0,0.5,0.9,311.3,0.00,17.8,20.9,"04:49:44",1
"23/10/04","05:00",0.0,18.4,95.7,1009.0,304.3,0.8,1.2,314.8,0.00,17.7,20.7,"04:50:48",1
"23/10/04","05:10",0.0,18.6,95.9,1009.0,315.7,1.0,2.1,334.0,0.00,18.0,20.9,"05:08:56",1
"23/10/04","05:20",0.0,18.5,95.9,1008.8,329.4,0.8,1.4,325.3,0.00,17.9,21.0,"05:12:00",1
"23/10/04","05:30",0.0,18.3,95.9,1009.0,300.5,0.7,1.3,315.9,0.00,17.7,20.8,"05:22:24",1
"23/10/04","05:40",0.0,18.2,96.1,1009.0,328.7,1.1,1.4,335.8,0.00,17.6,20.9,"05:33:12",1
"23/10/04","05:50",0.0,18.3,96.1,1009.3,321.8,1.1,1.6,320.5,0.00,17.7,20.8,"05:44:48",1
"23/10/04","06:00",0.0,18.1,96.2,1009.0,323.1,1.0,1.8,340.7,0.00,17.5,20.9,"05:50:16",1
"23/10/04","06:10",0.0,18.0,96.3,1009.3,333.4,1.0,1.3,319.4,0.00,17.4,20.9,"06:08:48",1
"23/10/04","06:20",0.0,17.9,96.4,1009.5,313.2,1.0,1.9,321.8,0.00,17.4,20.9,"06:11:36",1
"23/10/04","06:30",0.0,17.9,96.5,1009.5,286.9,0.7,1.1,295.6,0.00,17.4,20.8,"06:20:32",1
"23/10/04","06:40",0.0,18.3,96.6,1009.3,296.7,1.1,1.8,333.9,0.03,17.8,20.9,"06:38:16",1
"23/10/04","06:50",0.0,18.5,96.6,1009.5,280.7,0.7,1.4,264.9,0.04,18.0,20.9,"06:45:44",1
"23/10/04","07:00",0.0,18.9,96.6,1009.5,303.7,0.7,1.1,310.6,0.05,18.4,20.9,"06:56:16",1
"23/10/04","07:10",0.0,19.2,96.5,1009.7,301.7,0.6,1.0,312.4,0.07,18.7,20.9,"07:00:40",1
"23/10/04","07:20",0.0,19.3,96.5,1010.0,322.3,0.8,1.3,319.6,0.07,18.8,20.7,"07:14:16",1
"23/10/04","07:30",0.0,19.6,96.5,1009.7,338.1,0.7,1.2,326.1,0.09,19.1,20.8,"07:21:04",1
"23/10/04","07:40",0.0,20.0,96.6,1009.3,330.4,0.5,1.0,324.4,0.15,19.5,21.0,"07:34:16",1
"23/10/04","07:50",0.0,20.8,96.5,1009.7,15.4,0.2,0.6,356.4,0.22,20.3,21.0,"07:40:40",1
"23/10/04","08:00",0.0,21.1,96.1,1008.8,205.3,0.3,1.0,126.4,0.26,20.5,20.8,"07:54:00",1
"23/10/04","08:10",0.0,21.2,96.2,1009.3,78.9,0.6,1.3,109.5,0.23,20.6,20.7,"08:08:08",1
"23/10/04","08:20",0.0,21.5,96.0,1009.0,167.0,0.5,1.2,141.5,0.27,20.9,21.0,"08:12:16",1
"23/10/04","08:30",0.0,21.5,96.0,1008.8,236.1,0.8,1.8,226.3,0.36,20.9,20.9,"08:25:52",1
"23/10/04","08:40",0.0,21.0,94.9,1009.0,215.3,1.0,2.6,230.5,0.23,20.2,21.1,"08:35:44",1
"23/10/04","08:50",0.0,21.0,95.1,1009.3,206.5,0.7,1.7,146.8,0.18,20.2,21.0,"08:43:52",1
"23/10/04","09:00",0.0,21.8,94.9,1009.0,242.9,0.7,1.7,113.6,0.28,21.0,21.0,"08:51:28",1
"23/10/04","09:10",0.0,22.0,94.2,1009.3,347.6,1.0,2.1,335.4,0.29,21.1,21.0,"09:00:08",1
"23/10/04","09:20",0.0,22.2,93.8,1009.0,358.0,1.0,2.2,348.5,0.47,21.2,21.0,"09:12:56",1
"23/10/04","09:30",0.0,22.5,91.5,1008.6,344.4,0.8,1.9,13.3,0.40,21.1,21.3,"09:20:02",1
"23/10/04","09:40",0.0,23.3,88.6,1008.3,349.8,0.8,1.8,6.7,0.38,21.4,21.2,"09:34:16",1
"23/10/04","09:50",0.0,23.4,85.0,1007.6,228.3,0.6,1.2,38.8,0.20,20.8,21.1,"09:40:24",1
"23/10/04","10:00",0.0,23.5,81.6,1007.8,355.0,0.8,1.6,329.7,0.17,20.2,21.4,"09:52:48",1
"23/10/04","10:10",0.0,23.4,79.5,1007.8,347.0,1.0,2.1,342.1,0.10,19.7,21.4,"10:04:00",1
"23/10/04","10:20",0.0,23.2,79.0,1007.6,335.1,0.8,1.8,324.4,0.06,19.4,21.2,"10:12:40",1
"23/10/04","10:30",0.0,23.0,79.4,1007.8,350.7,1.0,1.8,322.4,0.06,19.3,21.5,"10:25:44",1
"23/10/04","10:40",0.0,23.0,79.6,1007.1,315.7,0.7,1.9,344.9,0.03,19.3,21.5,"10:36:32",1
"23/10/04","10:50",0.0,22.7,80.1,1007.4,172.6,0.8,2.0,87.1,0.03,19.1,21.7,"10:48:48",1
"23/10/04","11:00",0.0,22.7,80.1,1007.4,112.4,1.0,3.3,162.4,0.02,19.1,21.4,"10:53:36",1
"23/10/04","11:10",0.0,22.5,80.2,1007.1,90.4,1.1,3.2,112.6,0.02,19.0,21.6,"11:09:12",1
"23/10/04","11:20",0.0,22.5,80.5,1007.4,140.0,0.8,3.1,72.0,0.02,19.0,21.6,"11:12:24",1
"23/10/04","11:30",0.0,22.5,80.7,1007.1,142.3,0.7,2.2,123.3,0.03,19.1,21.7,"11:24:32",1
"23/10/04","11:40",0.0,22.4,80.6,1007.1,104.5,0.8,1.8,118.0,0.03,18.9,21.6,"11:30:32",1
"23/10/04","11:50",0.0,22.5,80.5,1006.2,71.9,0.6,1.6,121.1,0.04,19.0,21.6,"11:44:48",1
"23/10/04","12:00",0.0,22.6,80.3,1006.4,93.8,0.8,2.5,63.0,0.03,19.1,21.6,"11:53:28",1
"23/10/04","12:10",0.0,22.7,80.0,1006.4,16.0,0.6,1.8,84.3,0.05,19.1,21.7,"12:00:08",1
"23/10/04","12:20",0.0,22.9,79.5,1006.0,227.7,0.6,1.7,81.3,0.06,19.2,21.7,"12:15:36",1
"23/10/04","12:30",0.0,23.1,79.1,1005.7,353.7,0.6,1.8,133.2,0.03,19.3,21.6,"12:21:20",1
"23/10/04","12:40",0.0,22.8,78.7,1005.7,333.0,0.8,2.7,39.7,0.03,18.9,21.6,"12:37:52",1
"23/10/04","12:50",0.0,23.2,78.6,1006.0,338.5,0.7,1.2,329.6,0.05,19.3,21.7,"12:42:40",1
"23/10/04","13:00",0.0,23.1,78.5,1005.5,320.4,0.6,1.2,322.5,0.03,19.2,21.7,"12:59:52",1
"23/10/04","13:10",0.0,23.2,78.2,1005.2,357.1,1.0,1.8,346.3,0.07,19.2,21.9,"13:00:08",1
"23/10/04","13:20",0.0,23.5,77.6,1005.5,20.8,0.7,1.4,332.0,0.07,19.4,21.9,"13:10:56",1
"23/10/04","13:30",0.0,23.6,77.1,1005.0,1.3,0.8,1.8,320.5,0.09,19.4,21.6,"13:27:28",1
"23/10/04","13:40",0.0,23.7,76.6,1004.5,57.3,1.0,2.9,139.2,0.12,19.4,21.7,"13:35:28",1
"23/10/04","13:50",0.0,23.6,76.4,1004.8,20.3,0.8,2.7,107.0,0.07,19.2,21.9,"13:49:12",1
"23/10/04","14:00",0.0,23.6,76.7,1004.5,21.1,0.7,1.8,116.2,0.08,19.3,21.7,"13:57:20",1
"23/10/04","14:10",0.0,23.6,76.6,1004.5,1.5,1.1,2.4,6.1,0.09,19.3,21.7,"14:05:36",1
"23/10/04","14:20",0.0,23.9,75.8,1004.5,14.2,1.0,2.7,10.3,0.15,19.4,21.9,"14:19:36",1
"23/10/04","14:30",0.0,23.9,75.3,1004.5,9.5,1.2,2.8,348.3,0.11,19.3,21.8,"14:24:00",1
"23/10/04","14:40",0.0,24.2,74.8,1004.3,5.2,0.8,1.8,338.6,0.15,19.5,21.8,"14:38:32",1
"23/10/04","14:50",0.0,24.8,74.7,1004.3,32.8,0.6,1.7,133.9,0.19,20.0,22.0,"14:40:02",1
"23/10/04","15:00",0.0,24.5,73.4,1004.3,25.2,0.8,2.4,6.0,0.11,19.5,21.8,"14:56:32",1
"23/10/04","15:10",0.0,24.3,73.0,1004.1,333.5,1.0,2.1,344.0,0.09,19.2,22.1,"15:08:40",1
"23/10/04","15:20",0.0,24.7,73.5,1003.8,325.4,0.7,2.0,319.3,0.15,19.7,22.0,"15:10:24",1
"23/10/04","15:30",0.0,25.2,72.5,1003.1,35.8,0.6,1.6,110.8,0.14,19.9,22.1,"15:20:24",1
"23/10/04","15:40",0.0,25.2,71.4,1003.1,349.0,1.0,2.6,5.9,0.10,19.7,22.2,"15:33:28",1
"23/10/04","15:50",0.0,25.2,71.1,1002.6,8.9,0.8,2.1,355.9,0.12,19.6,22.0,"15:41:20",1
"23/10/04","16:00",0.0,25.3,69.7,1002.6,342.6,1.2,2.7,0.4,0.11,19.4,22.2,"15:58:08",1
"23/10/04","16:10",0.0,24.9,70.9,1003.1,351.6,1.3,2.4,7.5,0.07,19.3,22.1,"16:03:36",1
"23/10/04","16:20",0.0,25.1,71.5,1002.9,9.2,0.6,1.4,65.2,0.07,19.6,22.2,"16:12:56",1
"23/10/04","16:30",0.0,24.4,71.5,1002.9,32.6,1.0,2.4,77.2,0.01,19.0,22.2,"16:24:32",1
"23/10/04","16:40",0.0,23.9,73.3,1002.9,4.0,0.7,1.9,37.0,0.00,18.9,22.1,"16:32:32",1
"23/10/04","16:50",0.0,23.6,74.9,1003.6,17.7,0.6,1.6,35.3,0.00,18.9,22.2,"16:41:52",1
"23/10/04","17:00",0.0,23.4,75.7,1003.4,348.2,0.6,1.7,11.6,0.00,18.9,21.9,"16:50:24",1
"23/10/04","17:10",0.0,23.1,76.5,1003.1,25.1,0.8,2.2,14.2,0.00,18.8,22.1,"17:07:20",1
"23/10/04","17:20",0.0,22.8,77.4,1003.6,1.2,0.7,1.9,15.7,0.00,18.7,22.3,"17:11:52",1
"23/10/04","17:30",0.0,22.5,78.2,1003.6,339.0,0.8,2.0,344.0,0.00,18.6,22.2,"17:24:00",1
"23/10/04","17:40",0.0,22.3,79.3,1003.6,336.3,0.7,1.4,334.9,0.00,18.6,22.2,"17:39:28",1
"23/10/04","17:50",0.0,22.0,80.7,1004.1,340.1,1.1,1.8,332.9,0.00,18.6,22.2,"17:43:04",1
"23/10/04","18:00",0.0,21.5,82.3,1003.8,339.8,1.1,1.7,333.0,0.00,18.4,22.2,"17:59:04",1
"23/10/04","18:10",0.0,20.9,83.4,1003.4,310.0,1.0,1.6,334.1,0.00,18.0,22.0,"18:01:28",1
"23/10/04","18:20",0.0,20.5,84.3,1003.8,310.3,0.7,1.3,337.7,0.00,17.8,22.2,"18:13:36",1
"23/10/04","18:30",0.0,20.3,85.3,1003.8,321.7,1.0,1.3,321.0,0.00,17.8,22.1,"18:21:36",1
"23/10/04","18:40",0.0,20.1,86.4,1004.1,306.6,1.0,1.6,316.3,0.00,17.8,22.2,"18:38:56",1
"23/10/04","18:50",0.0,20.0,87.0,1003.8,309.4,1.0,1.9,331.3,0.00,17.8,21.9,"18:41:12",1
"23/10/04","19:00",0.0,19.8,87.6,1003.8,309.4,0.8,1.1,312.8,0.00,17.7,22.1,"18:51:28",1
"23/10/04","19:10",0.0,19.7,88.2,1004.1,315.7,0.7,1.3,315.8,0.00,17.7,21.9,"19:06:16",1
"23/10/04","19:20",0.0,19.5,88.8,1003.8,304.3,0.8,1.4,295.0,0.00,17.6,21.9,"19:19:20",1
"23/10/04","19:30",0.0,19.6,89.2,1004.3,319.8,1.2,1.8,296.3,0.00,17.8,21.9,"19:21:12",1
"23/10/04","19:40",0.0,19.3,89.6,1004.1,314.6,0.8,1.4,327.5,0.00,17.6,21.7,"19:34:40",1
"23/10/04","19:50",0.0,19.0,90.2,1004.3,314.7,1.0,1.4,324.4,0.00,17.4,21.7,"19:46:56",1
"23/10/04","20:00",0.0,18.8,90.6,1004.5,310.7,1.1,1.6,316.5,0.00,17.3,21.8,"19:51:12",1
"23/10/04","20:10",0.0,19.0,91.0,1004.1,301.7,1.2,1.9,300.4,0.00,17.5,21.7,"20:04:08",1
"23/10/04","20:20",0.0,19.0,91.3,1004.5,306.5,1.2,2.0,320.3,0.00,17.6,21.7,"20:16:24",1
"23/10/04","20:30",0.0,19.0,91.8,1005.0,312.4,1.3,2.1,310.0,0.00,17.7,21.7,"20:27:20",1
"23/10/04","20:40",0.0,19.0,92.0,1005.2,307.8,1.1,1.8,304.3,0.00,17.7,21.6,"20:32:32",1
"23/10/04","20:50",0.0,19.0,92.2,1004.8,297.7,1.1,1.8,330.3,0.00,17.7,21.6,"20:49:52",1
"23/10/04","21:00",0.0,18.9,92.4,1004.5,305.7,1.3,2.4,326.3,0.00,17.7,21.7,"20:52:24",1
"23/10/04","21:10",0.0,18.9,92.6,1004.8,297.6,1.1,1.8,310.1,0.00,17.7,21.6,"21:02:48",1
"23/10/04","21:20",0.0,18.9,92.8,1004.5,300.4,1.2,2.8,335.3,0.00,17.7,21.6,"21:17:52",1
"23/10/04","21:30",0.0,18.9,92.8,1004.5,306.7,1.2,2.1,329.8,0.00,17.7,21.7,"21:24:56",1
"23/10/04","21:40",0.0,18.8,92.9,1004.1,315.1,1.2,1.8,316.1,0.00,17.7,21.7,"21:36:56",1
"23/10/04","21:50",0.0,18.7,93.0,1004.3,310.5,1.0,1.8,329.8,0.00,17.6,21.5,"21:40:56",1
"23/10/04","22:00",0.0,18.6,93.1,1004.1,329.1,1.0,1.4,333.3,0.00,17.5,21.6,"21:50:16",1
"23/10/04","22:10",0.0,18.3,93.2,1004.3,303.2,0.8,1.4,318.7,0.00,17.2,21.5,"22:06:16",1
"23/10/04","22:20",0.0,18.1,93.3,1004.1,301.9,0.6,1.2,262.6,0.00,17.0,21.3,"22:14:32",1
"23/10/04","22:30",0.0,18.0,93.5,1004.1,302.7,0.7,1.4,318.6,0.00,17.0,21.3,"22:27:44",1
"23/10/04","22:40",0.0,17.8,93.6,1003.6,317.1,1.2,1.9,336.1,0.00,16.8,21.5,"22:30:40",1
"23/10/04","22:50",0.0,17.7,93.8,1003.6,291.6,0.7,1.3,304.9,0.00,16.7,21.3,"22:49:28",1
"23/10/04","23:00",0.0,17.9,93.9,1003.8,316.3,1.5,2.1,311.9,0.00,16.9,21.3,"22:57:20",1
"23/10/04","23:10",0.0,17.9,93.9,1003.8,323.3,1.2,1.6,329.5,0.00,16.9,21.3,"23:01:44",1
"23/10/04","23:20",0.0,17.6,94.0,1004.1,289.4,0.8,1.2,310.0,0.00,16.7,21.2,"23:12:00",1
"23/10/04","23:30",0.0,17.9,94.3,1003.8,309.0,1.5,2.2,328.9,0.00,17.0,21.3,"23:29:04",1
"23/10/04","23:40",0.0,18.1,94.4,1003.8,320.4,2.0,3.1,323.9,0.00,17.2,21.2,"23:32:56",1
"23/10/04","23:50",0.0,18.0,94.4,1003.4,321.9,1.5,2.0,319.4,0.00,17.1,21.2,"23:40:40",1
"23/10/04","24:00",0.0,18.0,94.5,1003.4,325.5,1.3,2.0,318.9,0.00,17.1,21.0,"23:59:44",1
